Flag for Germany Weather past 2 weeks in Westerstede, Lower Saxony, Germany

Now
79 °F

Passing clouds.


Feels Like: 81 °F
Forecast: 59 / 93 °F
Wind: 8 mph from West

Location: Wittmundhaven

Current Time: Jul 3, 2015 at 1:27:53 PM

Latest Report: Jul 3, 2015 at 12:20 PM


Visibility: N/A

Pressure: 30.27 "Hg

Humidity: 61%

Dew point: 64 °F

Location of WesterstedeLocation

Historic Weather in Westerstede — Graph

°F

Westerstede temperature yesterday

Maximum temperature yesterday: 93 °F (at 4:20 PM)
Minimum temperature yesterday: 66 °F (at 4:20 AM)
Average temperature yesterday: 79 °F

Past Weeks' High & Low Weather Summary

 TemperatureHumidityPressure
High93 °F (Jul 2, 4:20 PM)100% (Jun 28, 3:20 AM)30.27 "Hg (Jun 28, 3:20 AM)
Low46 °F (Jun 21, 12:20 AM)33% (Jul 1, 4:20 PM)29.65 "Hg (Jun 22, 7:20 PM)
Average61 °F76%30.04 "Hg
* Reported Jun 18 12:20 PM — Jul 3 12:20 PM, Westerstede, Weather by CustomWeather, © 2015

Note: Actual official high and low records may vary slightly from our data, if they occured in-between our weather recording intervals... More about our weather records

Advertising

Westerstede weather history for previous 24 hours

 ConditionsComfort  
Time TempWeatherWind HumidityBarometerVisibility
12:20 PM
Fri, Jul 3
79 °FPassing clouds.8 mph61%30.27 "HgN/A
11:20 AM77 °FScattered clouds.7 mph69%30.27 "HgN/A
10:20 AM73 °FScattered clouds.5 mph74%30.27 "HgN/A
9:20 AM72 °FPartly sunny.2 mph78%30.27 "HgN/A
8:20 AM70 °FBroken clouds.3 mph88%30.24 "HgN/A
7:20 AM66 °FBroken clouds.5 mph94%30.21 "Hg6 mi
6:20 AM66 °FMild.2 mph94%30.21 "Hg4 mi
5:20 AM66 °FMild.10 mph94%30.21 "Hg6 mi
4:20 AM66 °FMild.9 mph94%30.21 "Hg4 mi
3:20 AM66 °FMild.10 mph88%30.18 "Hg2 mi
2:20 AM70 °FMild.16 mph73%30.24 "HgN/A
1:20 AM72 °FMild.7 mph73%30.18 "Hg6 mi
12:20 AM70 °FMild.14 mph78%30.15 "Hg4 mi
11:20 PM
Thu, Jul 2
72 °FMild.2 mph73%30.12 "Hg4 mi
10:20 PM73 °FMild.5 mph69%30.12 "Hg4 mi
9:20 PM79 °FWarm.16 mph61%30.12 "Hg5 mi
8:20 PM88 °FWarm.8 mph43%30.09 "HgN/A
7:20 PM91 °FHot.10 mph38%30.07 "HgN/A
6:20 PM93 °FExtremely hot.13 mph36%30.09 "HgN/A
5:20 PM93 °FExtremely hot.14 mph34%30.07 "HgN/A
4:20 PM93 °FExtremely hot.14 mph34%30.07 "HgN/A
3:20 PM91 °FHot.17 mph36%30.07 "HgN/A
2:20 PM90 °FHot.15 mph36%30.09 "HgN/A
1:20 PM88 °FPassing clouds.15 mph38%30.09 "HgN/A
Weather by CustomWeather, © 2015

See weather overviewHow to use our weather pages